SCP
0 0 0 0 0 0 0 0 0 0 0 0 0 0 0 0 0 0 0 0 -0 -0 -0 0 0 0 0 0 0 0 0 0 0 0 0 0 0 0 0 0 0 0 0 0
0 0 0 0 0 0 0 0 0 0 0 0 0 0 0 0 0 0 0 0 0 0 0 0 0 0 0 0 0 0 0 0 0 0 0 0 0 0 0 0 0 0 0 0
0 0 0 0 0 0 0 0 0 0 0 0 0 0 0 0 0 0 0 0 0 0 0 0 0 0 0 0 0 0 0 0 0 0 0 0 0 0 0 0 0 0 0 0
0 0 0 0 -0 0 0 0 0 0 0 0 0 0 0 0 0 0 0 0 0 0 0 0 0 0 0 0 0 0 0 0 0 0 0 0 0 0 0 0 0 0 0 0
0 0 0 0 0 0 0 0 0 0 0 0 0 0 0 0 0 0 0 0 0 0 0 0 0 0 0 0 0 0 0 0 0 0 0 0 0 0 0 0 0 0 0 0
0 0 -0 -0 -0 0 0 0 0 0 0 0 0 0 0 0 0 0 0 0 0 0 0 0 0 0 0 0 0 0 0 0 0 0 0 0 0 0 0 0 0 0 0 0
0 0 0 0 0 0 0 0 0 0 0 0 0 0 0 0 0 0 0 0 0 0 0 0 0 0 0 0 0 0 0 0 0 0 0 0 0 0 0 0 0 0 0 0
0 0 0 0 0 0 0 0 0 0 0 0 0 0 0 0 0 0 0 0 0 0 0 0 0 0 0 0 0 0 0 0 0 0 0 0 0 0 0 0 0 0 0 0
0 0 0 0 0 0 -0 -0 -0 -0 0 0 0 0 0 0 0 0 0 0 0 0 0 0 0 0 0 0 0 0 0 0 0 0 0 0 0 0 0 0 0 0 0 0
0 0 0 0 0 0 0 -0 -0 0 -0 -0 -0 -0 -0 0 0 0 0 0 0 0 0 0 0 0 0 0 0 0 0 0 0 0 0 0 0 0 0 0 0 0 0 0
0 0 0 0 0 0 0 0 0 0 0 0 0 -0 -0 -0 -0 0 0 0 0 0 0 0 0 0 0 0 0 0 0 0 0 0 0 0 0 0 0 0 0 0 0 0
0 0 0 0 0 0 0 0 0 0 0 0 0 0 0 0 0 0 0 0 0 0 0 0 0 0 0 0 0 0 0 0 0 0 0 0 0 0 0 0 0 0 0 0
0 0 0 0 0 0 0 0 0 0 0 0 0 0 0 0 0 0 0 0 0 0 0 0 0 0 0 0 0 0 0 0 0 0 0 0 0 0 0 0 0 0 0 0
0 0 0 0 0 0 0 0 0 0 0 0 0 0 0 0 0 0 0 0 0 0 0 0 0 0 0 0 0 0 0 0 0 0 0 0 0 0 0 0 0 0 0 0
0 0 0 0 0 0 0 0 0 0 0 0 0 0 0 0 0 0 0 0 0 0 0 0 0 0 0 0 0 0 0 0 0 0 0 0 0 0 0 0 0 0 0 0
0 0 0 0 0 0 0 0 0 0 0 0 0 0 0 0 0 0 0 0 0 0 0 0 0 0 0 0 0 0 0 0 0 0 0 0 0 0 0 0 0 0 0 0
0 0 0 0 0 0 0 0 0 0 0 0 0 0 0 0 0 0 0 0 0 0 0 0 0 0 0 0 0 0 0 0 0 0 0 0 0 0 0 0 0 0 0 0
0 0 0 0 0 0 0 0 0 0 0 0 0 0 0 0 0 0 0 0 0 0 0 0 0 0 0 0 0 0 0 0 0 0 0 0 0 0 0 0 0 0 0 0
0 0 0 0 0 0 0 0 0 0 0 0 0 0 0 0 0 0 0 0 0 0 0 0 0 0 0 0 0 0 0 0 0 0 0 0 0 0 0 0 0 0 0 0
0 0 0 0 0 0 0 0 0 0 0 0 0 0 0 0 0 0 0 0 0 0 0 0 0 0 0 0 0 0 0 0 0 0 0 0 0 0 0 0 0 0 0 0
0 0 0 0 0 0 0 0 0 0 0 0 0 0 0 0 0 0 0 0 0 0 0 0 0 0 0 0 0 0 0 0 0 0 0 0 0 0 0 0 0 0 0 0
0 0 0 0 0 0 0 0 0 0 0 0 0 0 0 0 0 0 0 0 0 0 0 0 0 0 0 0 0 0 0 0 0 0 0 0 0 0 0 0 0 0 0 0
0 0 0 0 0 0 0 0 0 0 0 0 0 0 0 0 0 0 0 0 0 0 0 0 0 0 0 0 0 0 0 0 0 0 0 0 0 0 0 0 0 0 0 0
0 0 0 0 0 0 0 0 0 0 0 0 0 0 0 0 0 0 0 0 0 0 0 0 0 0 0 0 0 0 0 0 0 0 0 0 0 0 0 0 0 0 0 0
0 0 0 0 0 0 0 0 0 0 0 0 0 0 0 0 0 0 0 0 0 0 0 0 0 0 0 0 0 0 0 0 0 0 0 0 0 0 0 0 0 0 0 0
0 0 0 0 0 0 0 0 0 0 0 0 0 0 0 0 0 0 0 0 0 0 0 0 0 0 0 0 0 0 0 0 0 0 0 0 0 0 0 0 0 0 0 0
0 0 0 0 0 0 0 0 0 0 0 0 0 0 0 0 0 0 0 0 0 0 0 0 0 0 0 0 0 0 0 0 0 0 0 0 0 0 0 0 0 0 0 0
Wind_Speed_500mb
40 45 44 41 37 30 41 48 44 53 49 58 57 36 52 56 57 63 73 67 63 57 54 59 65 67 62 66 62 62 61 68 64 66 63 63 66 73 78 76 78 78 81 83
29 38 34 30 35 43 42 40 44 52 58 54 73 67 56 62 64 62 66 67 73 68 60 68 71 73 72 62 63 67 70 67 66 69 70 69 70 74 76 75 78 80 82 82
39 36 27 22 38 46 53 51 49 46 51 47 50 51 62 68 56 58 62 67 73 70 64 61 66 73 79 74 67 71 70 69 69 73 74 73 72 71 73 77 75 79 80 81
10 22 26 20 34 28 39 41 41 47 52 58 67 86 94 86 62 69 69 77 77 70 69 57 50 58 59 57 58 60 60 63 65 71 75 74 74 71 72 77 74 78 80 80
23 35 34 43 31 19 23 35 33 35 37 57 70 75 78 89 62 71 76 75 62 61 63 57 50 43 45 46 50 54 55 56 57 60 65 69 72 71 71 75 76 76 81 80
23 27 32 32 39 59 43 32 8 21 23 34 57 30 33 52 39 40 44 47 46 42 43 50 58 62 61 58 58 57 56 55 53 52 55 60 62 65 66 68 71 74 77 79
32 23 18 30 53 41 24 13 10 18 24 32 20 30 68 68 64 56 55 53 50 50 45 42 43 46 48 50 50 50 48 46 43 42 42 43 46 51 54 58 63 69 70 70
14 19 30 2 13 14 6 26 35 43 43 35 43 53 62 64 52 40 41 45 48 49 47 46 45 45 45 47 46 42 39 36 34 32 31 31 34 39 42 48 52 56 56 56
20 15 5 11 19 27 34 39 50 41 52 45 50 54 56 70 69 60 51 49 51 53 51 47 44 43 44 42 38 34 29 26 22 20 21 22 26 28 33 37 40 45 46 43
26 34 39 59 61 46 43 40 42 50 48 49 61 62 63 61 67 65 63 52 48 48 48 46 41 39 34 29 23 20 17 14 12 12 13 15 18 19 23 28 30 33 32 31
23 32 44 53 36 33 53 59 62 57 68 61 53 59 62 67 62 57 63 49 41 46 44 42 36 31 23 14 9 9 9 9 11 14 16 16 14 13 16 17 17 18 20 23
29 37 39 37 49 56 54 66 75 69 69 56 48 52 49 56 55 56 55 45 39 37 37 33 27 20 18 18 16 17 19 15 16 20 22 24 23 20 16 11 10 12 10 11
62 70 61 68 75 71 77 80 75 67 55 55 53 50 49 52 51 51 46 39 33 30 29 26 25 21 19 23 25 19 16 17 14 15 18 19 19 17 16 16 18 17 14 16
63 59 58 74 66 75 66 60 55 62 59 53 52 50 45 44 44 42 39 34 31 32 31 30 28 26 22 21 24 21 15 12 13 10 9 12 15 15 17 18 19 19 20 22
73 68 74 82 73 77 55 59 67 70 71 63 54 47 41 38 38 36 33 32 32 32 30 28 26 25 22 21 22 21 18 15 13 13 14 15 16 17 18 18 18 16 15 17
57 57 56 57 67 75 73 74 68 73 66 57 48 42 39 41 40 37 35 31 26 27 28 26 26 20 20 20 20 22 13 8 13 13 15 15 15 15 14 14 11 11 12 13
45 33 37 44 44 45 52 55 53 58 55 49 44 41 36 31 29 28 30 34 35 35 31 28 27 27 21 15 11 12 16 15 13 12 12 11 9 9 12 13 13 14 15 15
36 41 40 44 47 50 48 45 42 45 39 36 30 26 24 23 20 20 22 21 22 22 22 22 22 20 20 22 23 20 19 18 15 12 11 9 7 9 10 12 15 17 18 23
29 32 32 35 38 39 42 42 36 37 31 25 21 24 27 25 25 26 25 28 28 23 20 17 19 19 15 17 16 16 17 16 15 13 11 9 8 10 12 15 17 19 21 25
28 28 28 28 28 30 30 29 30 27 24 20 19 21 24 25 23 28 26 24 23 19 14 14 14 14 13 13 14 12 12 13 13 12 10 9 10 12 13 15 17 19 21 24
23 25 25 24 23 21 21 20 17 14 12 18 23 22 23 26 30 28 26 24 21 19 18 17 13 11 10 9 8 7 6 4 3 2 3 5 8 12 14 16 19 22 25 28
22 22 21 19 16 14 10 5 6 7 10 17 20 21 21 22 22 22 23 21 21 20 16 12 10 8 7 6 4 4 4 5 6 8 10 12 15 18 21 23 26 29 31 33
16 14 12 10 7 3 4 8 14 19 25 28 28 26 23 25 26 22 23 21 20 16 14 12 11 9 6 5 6 8 10 12 15 17 19 22 25 27 30 33 36 39 41 43
10 6 5 6 10 13 16 21 23 24 25 27 27 27 28 24 24 26 25 24 22 18 14 11 9 7 8 10 12 14 16 19 21 24 27 30 33 36 39 42 44 46 49 50
6 9 13 14 15 21 24 27 28 30 29 30 30 28 26 22 22 23 20 17 15 11 8 8 9 11 14 16 19 21 24 27 30 32 35 38 41 43 45 48 50 52 53 54
10 13 15 17 21 23 23 23 29 32 30 28 27 27 25 22 19 15 12 9 7 6 8 11 15 18 22 25 28 31 34 37 40 43 46 48 50 52 54 55 57 58 60 61
18 22 22 23 24 24 23 25 26 27 24 21 20 18 16 15 12 9 8 10 13 16 19 23 26 29 31 34 36 39 41 43 45 47 48 49 49 50 51 53 55 56 58 60
Wind_Direction_500mb
257 273 282 283 279 269 242 242 240 253 248 261 270 275 279 287 290 284 286 293 290 289 283 283 284 283 279 287 274 272 273 269 266 261 258 257 252 247 242 240 237 235 235 235
295 278 280 280 274 266 256 260 259 260 263 257 278 279 277 284 280 281 280 276 278 282 281 286 287 286 290 285 280 279 271 266 263 261 257 256 252 247 243 240 238 233 234 235
264 270 267 249 242 251 248 246 251 254 259 273 269 276 282 285 287 280 278 277 280 280 283 280 283 288 289 289 281 272 270 268 266 263 259 258 256 251 244 240 240 234 236 237
292 308 263 274 256 260 257 257 257 257 260 269 276 280 282 279 283 282 280 277 280 284 289 289 280 278 283 285 284 282 278 272 265 261 259 257 255 252 246 241 241 235 237 238
254 258 275 281 266 243 256 274 273 263 265 270 278 278 280 281 280 275 275 279 281 278 284 286 290 289 290 288 286 283 282 279 274 267 261 257 255 253 247 241 239 237 237 236
232 245 260 263 259 257 265 255 67 14 341 340 309 280 279 308 306 300 287 282 285 287 290 292 291 289 287 286 285 284 283 283 276 269 264 260 257 254 250 244 240 240 241 237
237 248 252 253 264 268 244 257 53 350 324 326 316 316 310 312 307 302 294 294 293 293 295 295 294 295 295 291 286 283 279 275 273 270 264 259 255 251 247 243 238 238 238 238
233 245 256 280 311 249 42 344 316 312 299 299 303 305 312 322 317 315 307 301 300 299 297 296 294 294 294 291 288 284 280 274 268 263 256 250 244 244 242 239 237 237 236 235
249 255 286 306 277 297 301 289 290 292 302 286 299 300 308 311 310 315 308 303 300 298 296 294 293 292 291 290 288 284 276 266 255 248 245 239 235 230 230 231 231 232 233 236
265 255 271 284 295 295 293 285 302 296 305 288 277 285 291 290 287 293 296 292 293 293 293 291 290 290 287 283 280 274 263 247 224 207 210 209 206 207 216 221 223 227 229 224
260 267 272 274 269 322 312 306 307 302 306 300 297 293 288 283 287 287 285 283 283 289 288 286 285 282 270 249 197 165 161 170 165 148 148 157 166 185 187 198 216 233 225 226
259 273 287 282 294 303 295 290 296 299 298 293 294 295 296 290 288 282 277 275 276 276 276 277 272 245 200 167 150 143 137 139 138 131 137 139 138 147 167 180 187 172 199 233
267 272 267 279 284 285 283 283 282 289 282 288 291 291 293 288 280 273 269 266 261 255 254 243 224 215 198 173 150 143 145 149 151 168 177 171 162 156 170 174 178 196 207 222
269 275 279 275 277 280 277 270 272 281 280 283 288 291 283 278 275 268 262 255 258 251 231 213 209 208 184 160 148 146 149 141 142 158 167 182 166 179 195 202 213 220 218 214
269 271 268 273 269 270 265 279 282 275 279 282 283 284 281 277 268 262 259 260 251 240 228 211 192 171 154 152 142 143 152 160 150 159 175 184 171 175 198 200 205 210 216 228
271 275 280 275 274 278 280 281 275 276 276 273 274 275 274 269 264 258 244 223 208 195 175 162 148 150 151 152 144 137 120 195 181 177 175 182 175 168 193 204 210 217 216 221
303 310 302 294 291 291 286 279 275 275 274 271 271 269 264 258 251 236 217 201 185 170 152 154 159 151 145 140 145 167 168 162 170 181 183 185 169 181 211 225 231 236 247 251
287 289 289 288 294 294 288 281 272 268 264 263 253 248 242 221 199 190 177 164 158 143 148 157 146 161 165 169 168 169 175 173 174 189 196 198 189 205 228 246 253 258 256 256
293 292 290 287 287 286 284 279 273 267 256 246 240 225 216 207 193 182 174 158 147 148 153 158 169 170 164 167 167 178 182 176 172 182 196 199 205 225 238 246 253 257 257 259
300 295 296 295 293 287 279 272 269 262 245 226 213 197 188 178 173 166 170 164 158 172 171 159 166 169 174 175 182 183 178 176 177 182 198 215 229 234 239 246 253 257 259 260
308 307 306 304 298 292 284 281 267 244 234 200 197 184 174 163 159 154 157 158 148 162 160 151 154 153 154 164 168 177 169 165 173 199 241 259 268 270 270 269 271 271 270 269
320 317 315 311 308 301 296 270 230 188 168 163 152 152 149 151 148 147 143 141 136 143 141 134 128 121 114 108 97 63 27 4 335 317 310 303 298 294 293 291 289 286 285 285
329 322 325 327 334 22 103 129 137 143 147 136 132 135 145 143 139 137 140 135 131 123 115 110 105 99 85 39 13 2 349 334 322 315 308 303 300 298 296 295 293 292 291 290
359 8 36 84 105 111 115 108 116 119 120 120 123 128 127 124 131 129 128 125 119 106 95 85 68 40 7 349 339 328 317 308 305 304 303 302 300 299 298 297 296 295 294 293
62 97 108 114 118 110 109 110 111 107 108 110 113 115 116 113 117 109 105 101 90 78 55 21 357 339 331 327 322 319 316 313 310 308 306 305 304 303 303 301 300 299 298 296
104 111 117 118 115 115 113 115 110 107 106 107 108 108 107 105 99 91 76 55 41 12 344 330 325 323 321 320 318 314 311 309 308 307 306 305 304 303 302 300 299 297 296 295
121 118 114 114 114 114 114 111 110 105 103 98 91 89 83 72 59 39 7 342 335 329 324 319 316 314 313 311 309 309 309 309 309 309 309 309 309 308 307 306 305 305 303 302
Wind_Speed_850mb
40 45 44 41 37 30 41 48 44 53 49 58 57 36 52 56 57 63 73 67 63 57 54 59 65 67 62 66 62 62 61 68 64 66 63 63 66 73 78 76 78 78 81 83
29 38 34 30 35 43 42 40 44 52 58 54 73 67 56 62 64 62 66 67 73 68 60 68 71 73 72 62 63 67 70 67 66 69 70 69 70 74 76 75 78 80 82 82
39 36 27 22 38 46 53 51 49 46 51 47 50 51 62 68 56 58 62 67 73 70 64 61 66 73 79 74 67 71 70 69 69 73 74 73 72 71 73 77 75 79 80 81
10 22 26 20 34 28 39 41 41 47 52 58 67 86 94 86 62 69 69 77 77 70 69 57 50 58 59 57 58 60 60 63 65 71 75 74 74 71 72 77 74 78 80 80
23 35 34 43 31 19 23 35 33 35 37 57 70 75 78 89 62 71 76 75 62 61 63 57 50 43 45 46 50 54 55 56 57 60 65 69 72 71 71 75 76 76 81 80
23 27 32 32 39 59 43 32 8 21 23 34 57 30 33 52 39 40 44 47 46 42 43 50 58 62 61 58 58 57 56 55 53 52 55 60 62 65 66 68 71 74 77 79
32 23 18 30 53 41 24 13 10 18 24 32 20 30 68 68 64 56 55 53 50 50 45 42 43 46 48 50 50 50 48 46 43 42 42 43 46 51 54 58 63 69 70 70
14 19 30 2 13 14 6 26 35 43 43 35 43 53 62 64 52 40 41 45 48 49 47 46 45 45 45 47 46 42 39 36 34 32 31 31 34 39 42 48 52 56 56 56
20 15 5 11 19 27 34 39 50 41 52 45 50 54 56 70 69 60 51 49 51 53 51 47 44 43 44 42 38 34 29 26 22 20 21 22 26 28 33 37 40 45 46 43
26 34 39 59 61 46 43 40 42 50 48 49 61 62 63 61 67 65 63 52 48 48 48 46 41 39 34 29 23 20 17 14 12 12 13 15 18 19 23 28 30 33 32 31
23 32 44 53 36 33 53 59 62 57 68 61 53 59 62 67 62 57 63 49 41 46 44 42 36 31 23 14 9 9 9 9 11 14 16 16 14 13 16 17 17 18 20 23
29 37 39 37 49 56 54 66 75 69 69 56 48 52 49 56 55 56 55 45 39 37 37 33 27 20 18 18 16 17 19 15 16 20 22 24 23 20 16 11 10 12 10 11
62 70 61 68 75 71 77 80 75 67 55 55 53 50 49 52 51 51 46 39 33 30 29 26 25 21 19 23 25 19 16 17 14 15 18 19 19 17 16 16 18 17 14 16
63 59 58 74 66 75 66 60 55 62 59 53 52 50 45 44 44 42 39 34 31 32 31 30 28 26 22 21 24 21 15 12 13 10 9 12 15 15 17 18 19 19 20 22
73 68 74 82 73 77 55 59 67 70 71 63 54 47 41 38 38 36 33 32 32 32 30 28 26 25 22 21 22 21 18 15 13 13 14 15 16 17 18 18 18 16 15 17
57 57 56 57 67 75 73 74 68 73 66 57 48 42 39 41 40 37 35 31 26 27 28 26 26 20 20 20 20 22 13 8 13 13 15 15 15 15 14 14 11 11 12 13
45 33 37 44 44 45 52 55 53 58 55 49 44 41 36 31 29 28 30 34 35 35 31 28 27 27 21 15 11 12 16 15 13 12 12 11 9 9 12 13 13 14 15 15
36 41 40 44 47 50 48 45 42 45 39 36 30 26 24 23 20 20 22 21 22 22 22 22 22 20 20 22 23 20 19 18 15 12 11 9 7 9 10 12 15 17 18 23
29 32 32 35 38 39 42 42 36 37 31 25 21 24 27 25 25 26 25 28 28 23 20 17 19 19 15 17 16 16 17 16 15 13 11 9 8 10 12 15 17 19 21 25
28 28 28 28 28 30 30 29 30 27 24 20 19 21 24 25 23 28 26 24 23 19 14 14 14 14 13 13 14 12 12 13 13 12 10 9 10 12 13 15 17 19 21 24
23 25 25 24 23 21 21 20 17 14 12 18 23 22 23 26 30 28 26 24 21 19 18 17 13 11 10 9 8 7 6 4 3 2 3 5 8 12 14 16 19 22 25 28
22 22 21 19 16 14 10 5 6 7 10 17 20 21 21 22 22 22 23 21 21 20 16 12 10 8 7 6 4 4 4 5 6 8 10 12 15 18 21 23 26 29 31 33
16 14 12 10 7 3 4 8 14 19 25 28 28 26 23 25 26 22 23 21 20 16 14 12 11 9 6 5 6 8 10 12 15 17 19 22 25 27 30 33 36 39 41 43
10 6 5 6 10 13 16 21 23 24 25 27 27 27 28 24 24 26 25 24 22 18 14 11 9 7 8 10 12 14 16 19 21 24 27 30 33 36 39 42 44 46 49 50
6 9 13 14 15 21 24 27 28 30 29 30 30 28 26 22 22 23 20 17 15 11 8 8 9 11 14 16 19 21 24 27 30 32 35 38 41 43 45 48 50 52 53 54
10 13 15 17 21 23 23 23 29 32 30 28 27 27 25 22 19 15 12 9 7 6 8 11 15 18 22 25 28 31 34 37 40 43 46 48 50 52 54 55 57 58 60 61
18 22 22 23 24 24 23 25 26 27 24 21 20 18 16 15 12 9 8 10 13 16 19 23 26 29 31 34 36 39 41 43 45 47 48 49 49 50 51 53 55 56 58 60
Wind_Direction_850mb
257 273 282 283 279 269 242 242 240 253 248 261 270 275 279 287 290 284 286 293 290 289 283 283 284 283 279 287 274 272 273 269 266 261 258 257 252 247 242 240 237 235 235 235
295 278 280 280 274 266 256 260 259 260 263 257 278 279 277 284 280 281 280 276 278 282 281 286 287 286 290 285 280 279 271 266 263 261 257 256 252 247 243 240 238 233 234 235
264 270 267 249 242 251 248 246 251 254 259 273 269 276 282 285 287 280 278 277 280 280 283 280 283 288 289 289 281 272 270 268 266 263 259 258 256 251 244 240 240 234 236 237
292 308 263 274 256 260 257 257 257 257 260 269 276 280 282 279 283 282 280 277 280 284 289 289 280 278 283 285 284 282 278 272 265 261 259 257 255 252 246 241 241 235 237 238
254 258 275 281 266 243 256 274 273 263 265 270 278 278 280 281 280 275 275 279 281 278 284 286 290 289 290 288 286 283 282 279 274 267 261 257 255 253 247 241 239 237 237 236
232 245 260 263 259 257 265 255 67 14 341 340 309 280 279 308 306 300 287 282 285 287 290 292 291 289 287 286 285 284 283 283 276 269 264 260 257 254 250 244 240 240 241 237
237 248 252 253 264 268 244 257 53 350 324 326 316 316 310 312 307 302 294 294 293 293 295 295 294 295 295 291 286 283 279 275 273 270 264 259 255 251 247 243 238 238 238 238
233 245 256 280 311 249 42 344 316 312 299 299 303 305 312 322 317 315 307 301 300 299 297 296 294 294 294 291 288 284 280 274 268 263 256 250 244 244 242 239 237 237 236 235
249 255 286 306 277 297 301 289 290 292 302 286 299 300 308 311 310 315 308 303 300 298 296 294 293 292 291 290 288 284 276 266 255 248 245 239 235 230 230 231 231 232 233 236
265 255 271 284 295 295 293 285 302 296 305 288 277 285 291 290 287 293 296 292 293 293 293 291 290 290 287 283 280 274 263 247 224 207 210 209 206 207 216 221 223 227 229 224
260 267 272 274 269 322 312 306 307 302 306 300 297 293 288 283 287 287 285 283 283 289 288 286 285 282 270 249 197 165 161 170 165 148 148 157 166 185 187 198 216 233 225 226
259 273 287 282 294 303 295 290 296 299 298 293 294 295 296 290 288 282 277 275 276 276 276 277 272 245 200 167 150 143 137 139 138 131 137 139 138 147 167 180 187 172 199 233
267 272 267 279 284 285 283 283 282 289 282 288 291 291 293 288 280 273 269 266 261 255 254 243 224 215 198 173 150 143 145 149 151 168 177 171 162 156 170 174 178 196 207 222
269 275 279 275 277 280 277 270 272 281 280 283 288 291 283 278 275 268 262 255 258 251 231 213 209 208 184 160 148 146 149 141 142 158 167 182 166 179 195 202 213 220 218 214
269 271 268 273 269 270 265 279 282 275 279 282 283 284 281 277 268 262 259 260 251 240 228 211 192 171 154 152 142 143 152 160 150 159 175 184 171 175 198 200 205 210 216 228
271 275 280 275 274 278 280 281 275 276 276 273 274 275 274 269 264 258 244 223 208 195 175 162 148 150 151 152 144 137 120 195 181 177 175 182 175 168 193 204 210 217 216 221
303 310 302 294 291 291 286 279 275 275 274 271 271 269 264 258 251 236 217 201 185 170 152 154 159 151 145 140 145 167 168 162 170 181 183 185 169 181 211 225 231 236 247 251
287 289 289 288 294 294 288 281 272 268 264 263 253 248 242 221 199 190 177 164 158 143 148 157 146 161 165 169 168 169 175 173 174 189 196 198 189 205 228 246 253 258 256 256
293 292 290 287 287 286 284 279 273 267 256 246 240 225 216 207 193 182 174 158 147 148 153 158 169 170 164 167 167 178 182 176 172 182 196 199 205 225 238 246 253 257 257 259
300 295 296 295 293 287 279 272 269 262 245 226 213 197 188 178 173 166 170 164 158 172 171 159 166 169 174 175 182 183 178 176 177 182 198 215 229 234 239 246 253 257 259 260
308 307 306 304 298 292 284 281 267 244 234 200 197 184 174 163 159 154 157 158 148 162 160 151 154 153 154 164 168 177 169 165 173 199 241 259 268 270 270 269 271 271 270 269
320 317 315 311 308 301 296 270 230 188 168 163 152 152 149 151 148 147 143 141 136 143 141 134 128 121 114 108 97 63 27 4 335 317 310 303 298 294 293 291 289 286 285 285
329 322 325 327 334 22 103 129 137 143 147 136 132 135 145 143 139 137 140 135 131 123 115 110 105 99 85 39 13 2 349 334 322 315 308 303 300 298 296 295 293 292 291 290
359 8 36 84 105 111 115 108 116 119 120 120 123 128 127 124 131 129 128 125 119 106 95 85 68 40 7 349 339 328 317 308 305 304 303 302 300 299 298 297 296 295 294 293
62 97 108 114 118 110 109 110 111 107 108 110 113 115 116 113 117 109 105 101 90 78 55 21 357 339 331 327 322 319 316 313 310 308 306 305 304 303 303 301 300 299 298 296
104 111 117 118 115 115 113 115 110 107 106 107 108 108 107 105 99 91 76 55 41 12 344 330 325 323 321 320 318 314 311 309 308 307 306 305 304 303 302 300 299 297 296 295
121 118 114 114 114 114 114 111 110 105 103 98 91 89 83 72 59 39 7 342 335 329 324 319 316 314 313 311 309 309 309 309 309 309 309 309 309 308 307 306 305 305 303 302